EW6167 Weather Reports


time (UTC)temp
C
wind
direction
speed
KPH
gust
KPH
rain 1hr
cm
rain 24hr
cm
rain mn
cm
humidity
%
barometer
mb
20260903040548 15 132 17.7 0.0 0.00 0.00 0.05 25 1003.5
20260903040104 15 167 19.3 0.0 0.00 0.00 0.05 25 1003.4
20260903035505 15 141 19.3 0.0 0.00 0.00 0.05 25 1003.2
20260903035024 15 192 19.3 0.0 0.00 0.00 0.05 26 1003.2
20260903034543 15 140 19.3 0.0 0.00 0.00 0.05 25 1003.2
20260903034103 15 178 19.3 0.0 0.00 0.00 0.05 25 1003.0
20260903033506 15 156 19.3 0.0 0.00 0.00 0.05 25 1003.0
20260903033025 15 167 22.5 0.0 0.00 0.00 0.05 24 1003.0
20260903032539 15 162 20.9 0.0 0.00 0.00 0.05 24 1003.1
20260903032057 15 144 19.3 0.0 0.00 0.00 0.05 24 1003.1
20260903031521 16 168 17.7 0.0 0.00 0.00 0.05 24 1003.1
20260903031023 16 175 17.7 0.0 0.00 0.00 0.05 24 1003.2
20260903030535 16 138 19.3 0.0 0.00 0.00 0.05 24 1003.2
20260903030045 16 146 20.9 0.0 0.00 0.00 0.05 23 1003.2
20260903025547 16 164 22.5 0.0 0.00 0.00 0.05 23 1003.2
20260903025053 16 136 24.1 0.0 0.00 0.00 0.05 23 1002.9
20260903024504 16 131 25.7 0.0 0.00 0.00 0.05 23 1002.9
20260903024012 16 160 25.7 0.0 0.00 0.00 0.05 23 1002.8
20260903023537 16 153 25.7 0.0 0.00 0.00 0.05 23 1002.5
20260903023058 16 139 25.7 0.0 0.00 0.00 0.05 23 1002.5
20260903022554 16 178 25.7 0.0 0.00 0.00 0.05 23 1002.6
20260903022005 16 197 27.4 0.0 0.00 0.00 0.05 23 1002.7
20260903021543 17 198 29.0 0.0 0.00 0.00 0.05 23 1002.7
20260903021044 17 178 30.6 0.0 0.00 0.00 0.05 22 1002.5
20260903020556 17 132 29.0 0.0 0.00 0.00 0.05 22 1002.4
20260903020007 17 146 30.6 0.0 0.00 0.00 0.05 22 1002.3
20260903015528 17 180 32.2 0.0 0.00 0.00 0.05 22 1002.5
20260903015046 17 168 32.2 0.0 0.00 0.00 0.05 21 1002.6
20260903014555 17 152 32.2 0.0 0.00 0.00 0.05 21 1002.6
20260903014004 17 186 32.2 0.0 0.00 0.00 0.05 21 1002.6
20260903013515 18 171 32.2 0.0 0.00 0.00 0.05 20 1002.6
20260903013034 18 188 33.8 0.0 0.00 0.00 0.05 20 1002.6
20260903012546 18 170 33.8 0.0 0.00 0.00 0.05 19 1002.3
20260903012055 18 159 32.2 0.0 0.00 0.00 0.05 19 1002.4
20260903011605 18 137 32.2 0.0 0.00 0.00 0.05 20 1002.4
20260903011009 18 190 30.6 0.0 0.00 0.00 0.05 19 1002.4
20260903010536 18 132 29.0 0.0 0.00 0.00 0.05 19 1002.2
20260903010052 19 168 27.4 0.0 0.00 0.00 0.05 19 1002.1
20260903005503 19 166 27.4 0.0 0.00 0.00 0.05 18 1002.1
20260903005021 19 133 29.0 0.0 0.00 0.00 0.05 18 1002.0
20260903004541 19 172 30.6 0.0 0.00 0.00 0.05 18 1002.0
20260903004048 19 178 32.2 0.0 0.00 0.00 0.05 18 1002.1
20260903003557 19 171 30.6 0.0 0.00 0.00 0.05 18 1001.9
20260903003014 19 130 32.2 0.0 0.00 0.00 0.05 18 1002.0
20260903002525 20 196 33.8 0.0 0.00 0.00 0.05 18 1002.1
20260903002029 20 162 32.2 0.0 0.00 0.00 0.05 18 1002.1
20260903001547 20 182 30.6 0.0 0.00 0.00 0.05 18 1001.9
20260903001008 20 167 29.0 0.0 0.00 0.00 0.05 18 1001.7
20260903000531 21 184 29.0 0.0 0.00 0.00 0.05 17 1001.8
20260903000036 20 171 30.6 0.0 0.00 0.00 0.05 18 1001.8
20260902235542 20 163 30.6 0.0 0.00 0.00 0.05 17 1001.8
20260902235056 21 182 32.2 0.0 0.00 0.00 0.05 17 1001.9
20260902234504 21 178 33.8 0.0 0.00 0.00 0.05 16 1001.8
20260902234023 20 201 33.8 0.0 0.00 0.00 0.05 17 1001.8
20260902233543 20 159 33.8 0.0 0.00 0.00 0.05 16 1001.8
20260902233052 21 174 30.6 0.0 0.00 0.00 0.05 16 1001.9
20260902232512 20 182 29.0 0.0 0.00 0.00 0.05 16 1001.8
20260902232038 20 204 30.6 0.0 0.00 0.00 0.05 16 1001.9
20260902231558 20 144 32.2 0.0 0.00 0.00 0.05 16 1001.9
20260902231105 20 188 35.4 0.0 0.00 0.00 0.05 16 1001.8
20260902230504 20 206 37.0 0.0 0.00 0.00 0.05 16 1002.0
20260902230027 20 185 35.4 0.0 0.00 0.00 0.05 15 1001.9
20260902225542 21 186 35.4 0.0 0.00 0.00 0.05 16 1002.1
20260902225053 21 180 35.4 0.0 0.00 0.00 0.05 16 1002.1
20260902224509 22 198 33.8 0.0 0.00 0.00 0.05 15 1002.0
20260902224031 22 193 32.2 0.0 0.00 0.00 0.05 16 1001.9
20260902223553 22 182 29.0 0.0 0.00 0.00 0.05 17 1002.0
20260902223004 22 219 30.6 0.0 0.00 0.00 0.05 18 1001.6
20260902222515 21 202 33.8 0.0 0.00 0.00 0.05 19 1001.7
20260902222033 21 196 33.8 0.0 0.00 0.00 0.05 19 1001.9
20260902221552 21 148 33.8 0.0 0.00 0.00 0.05 19 1001.6
20260902221100 21 116 32.2 0.0 0.00 0.00 0.05 19 1001.8
20260902220515 22 181 33.8 0.0 0.00 0.00 0.05 21 1001.9
20260902220035 22 219 33.8 0.0 0.00 0.00 0.05 20 1001.6
20260902215546 22 203 35.4 0.0 0.00 0.00 0.05 20 1001.6
20260902215056 22 159 38.6 0.0 0.00 0.00 0.05 19 1001.6
20260902214501 22 177 37.0 0.0 0.00 0.00 0.05 20 1001.5
20260902214013 22 215 32.2 0.0 0.00 0.00 0.05 20 1001.4
20260902213530 22 203 33.8 0.0 0.00 0.00 0.05 22 1001.3
20260902213050 22 186 35.4 0.0 0.00 0.00 0.05 22 1001.2
20260902212552 22 135 35.4 0.0 0.00 0.00 0.05 23 1001.3
20260902212016 21 155 37.0 0.0 0.00 0.00 0.05 24 1001.3
20260902211535 22 168 37.0 0.0 0.00 0.00 0.05 23 1001.4
20260902211052 22 195 38.6 0.0 0.00 0.00 0.05 21 1001.3
20260902210511 22 186 38.6 0.0 0.00 0.00 0.05 21 1001.1
20260902210036 22 194 37.0 0.0 0.00 0.00 0.05 22 1001.2
20260902205543 22 175 33.8 0.0 0.00 0.00 0.05 21 1001.2
20260902205001 22 171 37.0 0.0 0.00 0.00 0.05 21 1001.2
20260902204517 22 222 35.4 0.0 0.00 0.00 0.05 21 1001.2
20260902204033 22 208 33.8 0.0 0.00 0.00 0.05 19 1001.2
20260902203559 22 179 35.4 0.0 0.00 0.00 0.05 20 1001.3
20260902203001 22 187 35.4 0.0 0.00 0.00 0.05 20 1000.9
20260902202522 22 198 38.6 0.0 0.00 0.00 0.05 20 1001.1
20260902202031 22 180 41.8 0.0 0.00 0.00 0.05 19 1000.9
20260902201546 22 205 43.5 0.0 0.00 0.00 0.05 19 1000.8
20260902201006 22 208 41.8 0.0 0.00 0.00 0.05 19 1000.6
20260902200527 22 176 40.2 0.0 0.00 0.00 0.05 19 1000.6
20260902200040 22 150 40.2 0.0 0.00 0.00 0.05 18 1000.8
20260902195555 22 167 40.2 0.0 0.00 0.00 0.05 19 1000.8
20260902195003 22 190 40.2 0.0 0.00 0.00 0.05 19 1000.6
20260902194524 22 188 41.8 0.0 0.00 0.00 0.05 19 1000.8
20260902194035 22 208 43.5 0.0 0.00 0.00 0.05 19 1000.7
20260902193552 22 134 43.5 0.0 0.00 0.00 0.05 19 1000.6
20260902193102 22 173 40.2 0.0 0.00 0.00 0.05 19 1000.9
20260902192513 22 180 40.2 0.0 0.00 0.00 0.05 18 1000.8
20260902192026 22 186 41.8 0.0 0.00 0.00 0.05 19 1000.9
20260902191533 22 204 38.6 0.0 0.00 0.00 0.05 19 1001.0
20260902191044 22 171 38.6 0.0 0.00 0.00 0.05 19 1000.9
20260902190555 22 184 40.2 0.0 0.00 0.00 0.05 19 1000.7
20260902190010 22 167 38.6 0.0 0.00 0.00 0.05 23 1000.8
20260902185527 22 178 37.0 0.0 0.00 0.00 0.05 23 1000.7
20260902185042 22 225 37.0 0.0 0.00 0.00 0.05 26 1000.9
20260902184547 22 150 40.2 0.0 0.00 0.00 0.05 25 1000.8
20260902184100 22 180 41.8 0.0 0.00 0.00 0.05 26 1000.9
20260902183513 22 159 40.2 0.0 0.00 0.00 0.05 27 1000.9
20260902183028 22 168 38.6 0.0 0.00 0.00 0.05 23 1000.9
20260902182543 22 181 40.2 0.0 0.00 0.00 0.05 26 1001.1
20260902182056 22 186 37.0 0.0 0.00 0.00 0.05 27 1001.3
20260902181504 22 182 33.8 0.0 0.00 0.00 0.05 29 1001.4
20260902181020 22 178 33.8 0.0 0.00 0.00 0.05 30 1001.5
20260902180542 22 175 35.4 0.0 0.00 0.00 0.05 29 1001.2
20260902180054 22 175 33.8 0.0 0.00 0.00 0.05 30 1001.3
20260902175509 22 163 30.6 0.0 0.00 0.00 0.05 31 1001.3
20260902175029 22 198 29.0 0.0 0.00 0.00 0.05 32 1001.5
20260902174537 21 123 29.0 0.0 0.00 0.00 0.05 35 1001.4
20260902174052 21 163 29.0 0.0 0.00 0.00 0.05 37 1001.5
20260902173557 21 170 32.2 0.0 0.00 0.00 0.05 35 1001.7
20260902173015 21 195 37.0 0.0 0.00 0.00 0.05 36 1001.7
20260902172531 21 165 35.4 0.0 0.00 0.00 0.05 35 1001.7
20260902172037 21 183 33.8 0.0 0.00 0.00 0.05 35 1001.5
20260902171555 21 174 32.2 0.0 0.00 0.00 0.05 37 1001.7
20260902171012 21 144 32.2 0.0 0.00 0.00 0.05 36 1001.6
20260902170529 21 205 32.2 0.0 0.00 0.00 0.05 38 1001.8
20260902170042 21 159 29.0 0.0 0.00 0.00 0.05 37 1001.9
20260902165554 20 200 25.7 0.0 0.00 0.00 0.05 42 1001.8
20260902165103 20 171 24.1 0.0 0.00 0.00 0.05 42 1001.7
20260902164515 21 173 25.7 0.0 0.00 0.00 0.05 43 1001.7
20260902164026 20 141 25.7 0.0 0.00 0.00 0.05 43 1001.5
20260902163532 20 157 25.7 0.0 0.00 0.00 0.05 45 1001.6
20260902163039 20 169 25.7 0.0 0.00 0.00 0.05 44 1001.7
20260902162550 20 121 24.1 0.0 0.00 0.00 0.05 45 1001.5
20260902162057 19 169 22.5 0.0 0.00 0.00 0.05 48 1001.8
20260902161505 18 198 24.1 0.0 0.00 0.00 0.05 52 1001.9
20260902161024 18 164 25.7 0.0 0.00 0.00 0.05 52 1002.1
20260902160547 18 178 25.7 0.0 0.00 0.00 0.05 53 1002.1
20260902160055 18 175 25.7 0.0 0.00 0.00 0.05 53 1002.1
20260902155512 18 186 25.7 0.0 0.00 0.00 0.05 54 1001.9
20260902155022 18 180 24.1 0.0 0.00 0.00 0.05 53 1001.9
20260902154536 18 198 24.1 0.0 0.00 0.00 0.05 54 1002.0
20260902154041 17 193 25.7 0.0 0.00 0.00 0.05 55 1001.9
20260902153552 17 165 24.1 0.0 0.00 0.00 0.05 58 1002.0
20260902153007 17 173 22.5 0.0 0.00 0.00 0.05 60 1002.0
20260902152521 16 182 24.1 0.0 0.00 0.00 0.05 61 1002.1
20260902152036 16 174 24.1 0.0 0.00 0.00 0.05 63 1002.1
20260902151547 16 191 22.5 0.0 0.00 0.00 0.05 64 1002.2
20260902151101 16 175 20.9 0.0 0.00 0.00 0.05 65 1002.2
20260902150512 16 196 22.5 0.0 0.00 0.00 0.05 65 1002.3
20260902150022 16 163 22.5 0.0 0.00 0.00 0.05 63 1002.3
20260902145529 16 167 22.5 0.0 0.00 0.00 0.05 63 1002.6
20260902145034 15 178 24.1 0.0 0.00 0.00 0.05 66 1002.7
20260902144545 15 163 25.7 0.0 0.00 0.00 0.05 66 1002.7
20260902144059 15 158 24.1 0.0 0.00 0.00 0.05 68 1002.7
20260902143521 14 149 22.5 0.0 0.00 0.00 0.05 71 1002.7
20260902143037 13 140 22.5 0.0 0.00 0.00 0.05 71 1002.8
20260902142554 13 171 22.5 0.0 0.00 0.00 0.05 72 1002.8
20260902142103 13 153 22.5 0.0 0.00 0.00 0.05 73 1002.7
20260902141514 12 173 19.3 0.0 0.00 0.00 0.05 74 1002.7
20260902141046 12 159 17.7 0.0 0.00 0.00 0.05 74 1002.7
20260902140605 12 161 17.7 0.0 0.00 0.00 0.05 73 1002.7
20260902140021 12 144 20.9 0.0 0.00 0.00 0.05 73 1002.6
20260902135541 12 188 22.5 0.0 0.00 0.00 0.05 73 1002.6
20260902135055 12 157 24.1 0.0 0.00 0.00 0.05 73 1002.7
20260902134513 12 169 22.5 0.0 0.00 0.00 0.05 74 1002.7
20260902134035 12 179 19.3 0.0 0.00 0.00 0.05 75 1002.7
20260902133547 12 137 17.7 0.0 0.00 0.00 0.03 77 1002.7
20260902133058 11 137 17.7 0.0 0.00 0.00 0.03 78 1002.8
20260902132504 11 138 17.7 0.0 0.00 0.00 0.03 78 1002.7
20260902132012 11 146 19.3 0.0 0.00 0.00 0.03 78 1002.7
20260902131535 11 125 17.7 0.0 0.00 0.00 0.03 78 1002.7
20260902131056 11 160 16.1 0.0 0.00 0.00 0.03 79 1002.7
20260902130512 11 189 17.7 0.0 0.00 0.00 0.03 78 1002.8
20260902130032 11 152 14.5 0.0 0.00 0.00 0.03 78 1002.7
20260902125542 11 144 12.9 0.0 0.00 0.00 0.03 79 1002.8
20260902125055 11 170 16.1 0.0 0.00 0.00 0.03 80 1002.8
20260902124509 11 148 19.3 0.0 0.00 0.00 0.03 79 1002.9
20260902124028 11 151 19.3 0.0 0.00 0.00 0.03 79 1002.9
20260902123538 11 163 17.7 0.0 0.00 0.00 0.03 79 1002.8
20260902123049 11 149 17.7 0.0 0.00 0.00 0.03 78 1002.9
20260902122504 11 152 19.3 0.0 0.00 0.00 0.03 79 1002.9
20260902122017 11 168 17.7 0.0 0.00 0.00 0.03 80 1002.9
20260902121526 10 182 12.9 0.0 0.00 0.00 0.03 82 1003.1
20260902121039 10 172 12.9 0.0 0.00 0.00 0.03 83 1003.1
20260902120556 10 210 14.5 0.0 0.00 0.00 0.03 81 1003.2
20260902120006 10 209 12.9 0.0 0.00 0.00 0.03 82 1003.2
20260902115516 10 197 12.9 0.0 0.00 0.00 0.03 84 1003.3
20260902115036 10 160 11.3 0.0 0.00 0.00 0.03 85 1003.4
20260902114615 9 196 11.3 0.0 0.00 0.00 0.03 86 1003.5
20260902114106 9 200 11.3 0.0 0.00 0.00 0.03 88 1003.7
20260902113508 8 203 9.7 0.0 0.00 0.00 0.03 89 1003.9
20260902113017 8 206 9.7 0.0 0.00 0.00 0.03 89 1003.9
20260902112538 8 204 9.7 0.0 0.00 0.00 0.03 89 1004.0
20260902112049 8 205 9.7 0.0 0.00 0.00 0.03 89 1004.0
20260902111510 8 202 11.3 0.0 0.00 0.00 0.03 89 1004.1
20260902111019 8 205 9.7 0.0 0.00 0.00 0.03 89 1004.1
20260902110534 8 226 8.0 0.0 0.00 0.00 0.03 89 1004.3
20260902110050 8 235 6.4 0.0 0.00 0.00 0.03 87 1004.3
20260902105557 8 196 4.8 0.0 0.00 0.00 0.03 86 1004.4
20260902105003 8 179 1.6 0.0 0.00 0.00 0.03 86 1004.4
20260902104532 9 179 3.2 0.0 0.00 0.00 0.03 87 1004.4
20260902104045 8 179 6.4 0.0 0.00 0.00 0.03 88 1004.5
20260902103555 8 179 6.4 0.0 0.00 0.00 0.03 88 1004.4
20260902103019 8 179 8.0 0.0 0.00 0.00 0.03 87 1004.5
20260902102542 8 179 4.8 0.0 0.00 0.00 0.03 86 1004.5
20260902102051 8 178 4.8 0.0 0.00 0.00 0.03 86 1004.5
20260902101508 8 178 6.4 0.0 0.00 0.00 0.03 87 1004.5
20260902101025 8 178 8.0 0.0 0.00 0.00 0.03 87 1004.6
20260902100546 8 177 8.0 0.0 0.00 0.00 0.03 88 1004.6
20260902100013 8 164 8.0 0.0 0.00 0.00 0.03 88 1004.7
20260902095523 8 166 6.4 0.0 0.00 0.00 0.03 88 1004.8
20260902095031 8 188 6.4 0.0 0.00 0.00 0.03 88 1004.9
20260902094542 8 222 6.4 0.0 0.00 0.00 0.03 88 1004.9
20260902094102 8 222 4.8 0.0 0.00 0.00 0.03 87 1005.0
20260902093515 8 222 4.8 0.0 0.00 0.00 0.03 87 1005.1
20260902093029 8 222 4.8 0.0 0.00 0.00 0.03 86 1005.1
20260902092541 9 222 4.8 0.0 0.00 0.00 0.03 85 1005.1
20260902092052 9 222 6.4 0.0 0.00 0.00 0.03 85 1005.1
20260902091512 10 222 6.4 0.0 0.00 0.00 0.03 84 1005.0
20260902091027 10 222 6.4 0.0 0.00 0.00 0.03 84 1005.0
20260902090542 10 222 8.0 0.0 0.00 0.00 0.03 84 1005.0
20260902090004 10 222 8.0 0.0 0.00 0.00 0.03 84 1005.1
20260902085516 10 242 4.8 0.0 0.00 0.00 0.03 83 1005.1
20260902085028 11 306 4.8 0.0 0.00 0.00 0.03 84 1005.2
20260902084552 11 306 4.8 0.0 0.00 0.00 0.03 84 1005.3
20260902084001 11 311 3.2 0.0 0.00 0.00 0.03 83 1005.3
20260902083526 11 179 3.2 0.0 0.00 0.00 0.03 84 1005.2
20260902083040 11 179 3.2 0.0 0.00 0.00 0.03 84 1005.4
20260902082600 11 182 4.8 0.0 0.00 0.00 0.03 84 1005.4
20260902082003 11 148 6.4 0.0 0.00 0.00 0.03 84 1005.4
20260902081514 11 159 8.0 0.0 0.00 0.00 0.03 85 1005.2
20260902081029 10 204 6.4 0.0 0.00 0.00 0.03 85 1005.4
20260902080541 10 217 6.4 0.0 0.00 0.00 0.03 85 1005.4
20260902080057 10 184 6.4 0.0 0.00 0.00 0.03 84 1005.3
20260902075602 10 183 8.0 0.0 0.00 0.00 0.03 83 1005.2
20260902075007 10 184 9.7 0.0 0.00 0.00 0.03 83 1005.0
20260902074520 10 187 9.7 0.0 0.00 0.00 0.03 83 1004.8
20260902074033 10 200 8.0 0.0 0.00 0.00 0.03 82 1005.0
20260902073541 11 201 8.0 0.0 0.00 0.00 0.03 81 1004.9
20260902073107 11 205 8.0 0.0 0.00 0.00 0.03 80 1004.9
20260902072506 11 232 8.0 0.0 0.00 0.00 0.03 79 1005.0
20260902072035 11 234 9.7 0.0 0.00 0.00 0.03 79 1004.9
20260902071548 11 229 9.7 0.0 0.00 0.00 0.03 79 1005.0
20260902071056 11 209 8.0 0.0 0.00 0.00 0.03 78 1005.0
20260902070605 11 169 8.0 0.0 0.00 0.00 0.03 77 1005.1
20260902070009 12 167 8.0 0.0 0.00 0.00 0.03 76 1004.9
20260902065531 12 127 6.4 0.0 0.00 0.00 0.03 76 1004.8
20260902065051 12 243 8.0 0.0 0.00 0.00 0.03 74 1004.8
20260902064613 12 240 9.7 0.0 0.00 0.00 0.03 72 1004.7
20260902064017 12 246 9.7 0.0 0.00 0.00 0.00 72 1004.7
20260902063536 12 246 8.0 0.0 0.00 0.00 0.00 73 1004.6
20260902063046 13 248 9.7 0.0 0.00 0.00 0.00 73 1004.4
20260902062559 13 247 9.7 0.0 0.00 0.00 0.00 74 1004.9
20260902062010 13 224 8.0 0.0 0.00 0.00 0.00 72 1005.1
20260902061522 13 170 6.4 0.0 0.00 0.00 0.00 72 1004.9
20260902061042 13 148 9.7 0.0 0.00 0.00 0.00 73 1004.9
20260902060556 13 144 11.3 0.0 0.00 0.00 0.00 73 1005.2
20260902060002 13 124 9.7 0.0 0.00 0.00 0.03 72 1005.3
20260902055512 13 127 14.5 0.0 0.00 0.00 0.03 72 1005.2
20260902055034 13 146 20.9 0.0 0.00 0.00 0.03 70 1004.9
20260902054558 13 227 29.0 0.0 0.00 0.00 0.03 66 1005.4
20260902054005 14 240 22.5 0.0 0.00 0.00 0.03 63 1005.0
20260902053520 15 254 11.3 0.0 0.00 0.00 0.03 61 1004.9
20260902053044 15 184 12.9 0.0 0.00 0.00 0.03 57 1005.0
20260902052505 14 127 14.5 0.0 0.00 0.00 0.03 64 1005.0
20260902052028 14 177 19.3 0.0 0.00 0.00 0.00 63 1005.4
20260902051538 15 173 29.0 0.0 0.00 0.00 0.00 59 1005.5
20260902051049 16 124 33.8 0.0 0.00 0.00 0.00 50 1005.4
20260902050514 16 175 35.4 0.0 0.00 0.00 0.00 50 1005.1
20260902050038 16 167 33.8 0.0 0.00 0.00 0.00 51 1005.1
20260902045546 16 167 35.4 0.0 0.00 0.00 0.00 50 1005.2
20260902045100 16 130 33.8 0.0 0.00 0.00 0.00 48 1005.2
20260902044512 17 111 32.2 0.0 0.00 0.00 0.00 46 1005.4
20260902044035 17 146 30.6 0.0 0.00 0.00 0.00 45 1005.1
20260902043547 17 175 30.6 0.0 0.00 0.00 0.00 45 1004.8
20260902043058 17 184 25.7 0.0 0.00 0.00 0.00 47 1004.2
20260902042603 17 182 14.5 0.0 0.00 0.00 0.00 56 1003.9
20260902042020 16 155 12.9 0.0 0.00 0.00 0.00 56 1003.3
20260902041531 16 178 14.5 0.0 0.00 0.00 0.00 56 1003.3
20260902041053 16 188 12.9 0.0 0.00 0.00 0.00 57 1003.3